Regional Weather Roundup
Issued by NWS

Home | Current Version | Previous Version | Graphics & Text | Print | Product List | Glossary On
Versions: 1 2 3 4 5 6 7 8 9 10 11 12 13 14 15 16 17 18 19 20 21 22 23 24 25 26 27 28 29 30 31 32 33 34 35 36 37 38 39 40 41 42 43 44 45 46 47 48 49 50
000
ASUS45 KBOU 192207
RWRCO

WEATHER ROUNDUP FOR COLORADO
NATIONAL WEATHER SERVICE DENVER/BOULDER CO
300 PM MST SUN FEB 19 2017

NOTE: "FAIR" INDICATES FEW OR NO CLOUDS BELOW 12000 FEET WITH NO
SIGNIFICANT WEATHER AND/OR OBSTRUCTIONS TO VISIBILITY.

COZ001>005-013-030-031-192300-
...NORTHWEST COLORADO...

CITY           SKY/WX    TMP DP  RH WIND       PRES   REMARKS
CRAIG          LGT RAIN  41  35  79 SE3       29.72R
HAYDEN         CLOUDY    39  28  65 N3        29.73R
MEEKER         LGT RAIN  42  37  82 SW10      29.73R
MOUNT WERNER   NOT AVBL
STEAMBOAT SPGS NOT AVBL
WALDEN         NOT AVBL
$$

COZ006>008-011-192300-
...WEST CENTRAL VALLEYS...

CITY           SKY/WX    TMP DP  RH WIND       PRES   REMARKS
GRAND JUNCTION LGT RAIN  43  40  89 N8        29.78R
MONTROSE       FAIR      46  31  55 E7        29.79S
EAGLE          PTSUNNY   52  28  40 SW18G29   29.68R
RIFLE          CLOUDY    45  38  76 W22G31    29.72R
DELTA          CLOUDY    51  30  44 N3        29.79R
NUCLA          FAIR      46  30  53 S10G18    29.83S
$$

COZ017>023-064>068-192300-
...SOUTHWEST COLORADO...

CITY           SKY/WX    TMP DP  RH WIND       PRES   REMARKS
DURANGO        FAIR      39  32  76 CALM      29.83F
CORTEZ         CLOUDY    40  36  86 NE9       29.83S
PAGOSA SPRINGS PTSUNNY   38  29  72 SW7       29.85R
TELLURIDE      PTSUNNY   35  22  59 CALM      29.84S
WOLF CREEK PAS HVY SNOW  18  18 100 SW23G35   29.87F VSB<1/4 WCI   0
$$

COZ009-010-012-014-032>034-037-058>063-192300-
...CENTRAL COLORADO...

CITY           SKY/WX    TMP DP  RH WIND       PRES   REMARKS
ASPEN          LGT SNOW  35  32  88 N12       29.72R VSB 1   WCI  27
BUENA VISTA    PTSUNNY   42  30  62 S15G23    29.72R
COPPER MTN     NOT AVBL
BERTHOUD PASS  CLOUDY    27  16  63 SE30G38   29.79S WCI  10
COTTONWOOD PAS CLOUDY    37  25  60 SW7       29.74R
GUNNISON       PTSUNNY   39  26  59 W13       29.77R
KREMMLING      CLOUDY    45  30  57 CALM      29.69R
LEADVILLE      SNOW      29  26  89 S10       29.73S VSB 1/2 WCI  20
MONARCH PASS   LGT SNOW  25  19  80 W26G37    29.89S WCI   9
SALIDA         PTSUNNY   49  30  48 SE8       29.77F
SUNLIGHT       NOT AVBL
WILKERSON PASS PTSUNNY   37  19  48 SW12G21   29.79F
$$

COZ069>075-192300-
...SAN LUIS VALLEY/SANGRE DE CRISTO MOUNTAINS...

CITY           SKY/WX    TMP DP  RH WIND       PRES   REMARKS
ALAMOSA        FAIR      44  29  55 S23G33    29.74F
LA VETA PASS   FAIR      37  21  52 N20G33    29.78S
SAGUACHE       FAIR      45  32  61 N8        29.72F
$$

COZ035-036-038>040-192300-
...NORTHERN COLORADO FRONT RANGE...

CITY           SKY/WX    TMP DP  RH WIND       PRES   REMARKS
DENVER INTL AP PTSUNNY   62  26  25 S26       29.56R
DMNS CITY PARK   N/A     59  24  25 E7G16     29.56R
AURORA         PTSUNNY   60  27  28 S25G33    29.56S
FRONT RANGE AP NOT AVBL
ERIE MUNI ARPT FAIR      59  23  25 N6        29.56S
BOULDER MUN AP PTSUNNY   59  27  29 NE5       29.56F
CENTENNIAL     PTSUNNY   58  26  29 S26G36    29.56F
BROOMFIELD     CLOUDY    57  25  28 N7        29.58S
FORT COLLINS   FAIR      59  27  29 E6        29.57F
LONGMONT       FAIR      62  26  25 E6        29.58R
$$

COZ041-046-047-076>085-087-088-192300-
...PIKES PEAK/PALMER DIVIDE AND SOUTHERN FOOTHILLS...

CITY           SKY/WX    TMP DP  RH WIND       PRES   REMARKS
COLO. SPRINGS  CLOUDY    58  24  27 S28       29.63F
A. F. ACADEMY  FAIR      55  25  31 SE16G25   29.62F
SCHRIEVER AFB  FAIR      56  22  26 S29G37    29.63F
ELLICOTT       FAIR     N/A N/A N/A S22G35    29.62F
FALCON           N/A     54  25  33 S23       29.67
FORT CARSON    FAIR      60  25  26 SE22      29.59F
LIMON          FAIR      56  33  42 SE25      29.64S
MONUMENT HILL  FAIR      50  28  43 S24       29.67R
TRINIDAD       FAIR      59  20  22 S31       29.66F
$$

COZ042>045-048>051-090-091-192300-
...NORTHEAST COLORADO...

CITY           SKY/WX    TMP DP  RH WIND       PRES   REMARKS
GREELEY ARPT   FAIR      60  26  27 E6        29.56F
AKRON          FAIR      64  30  27 S29G38    29.58F
BURLINGTON     FAIR      65  38  36 S23G33    29.68S
WRAY           NOT AVBL
STERLING       PTSUNNY   68  30  24 S18       29.54F
HOLYOKE        FAIR      64  36  34 S16G23    29.62S
FORT MORGAN    FAIR      65  24  21 S21       29.56F
$$

COZ086-089-092>099-192300-
...SOUTHEAST COLORADO...

CITY           SKY/WX    TMP DP  RH WIND       PRES   REMARKS
PUEBLO         FAIR      66  23  19 S22G33    29.57S
LA JUNTA       FAIR      65  30  27 S21G30    29.62R
LAMAR          FAIR      67  24  19 S25G45    29.64R
SPRINGFIELD      N/A     60  30  32 S30G40    29.73F
$$



USA.gov is the U.S. government's official web portal to all federal, state and local government web resources and services.